FENGYUN 1C DEB, 35223

Orbit data source: Space-Track

FENGYUN 1C DEB, 35223 is space debris in SSO originally from a launch on Mon, 10 May 1999 UTC launched from the Taiyaun Space Center, China (TSC). Fengyun 1C debris stems from the Chinese weather satellite Fengyun-1C, which was intentionally destroyed by a Chinese anti-satellite missile in 2007. This event dramatically increased the amount of space debris, with thousands of trackable fragments posing hazards to satellites and human spaceflight. The Fengyun 1C debris cloud has become a focal point in discussions about space sustainability and the need for international regulations to prevent the creation of new debris.

Loading next visibility...
Identifier
35223, 1999-025DQF
Orbit
SSO
Country
Flag of CNCN / PRC
Related business
Manufacturer
Unknown
Mission
Spacecraft
Bus & Motor
Unknown
Mass
Unknown
Launch date (UTC)
1999-05-10 (27 years ago)
Launch vehicle
Unknown
Launch site
Taiyaun Space Center, China (TSC)
Object type
Payload
Rocket body
Debris
Shape & HBR
Unknown shape, 0.1 m
Radar Cross Section
Small (<0.1 m²)

Expand to show TLE details & history
Last TLE update: 2 days ago

TLE from 2 days ago
0 FENGYUN 1C DEB
1 35223U 99025DQF 26236.52549573  .00002756  00000-0  24198-3 0  9996
2 35223  98.9775 258.8179 0120669 229.3901 129.6768 14.92228704976787
Epoch: 2026-08-24T12:36Z
TLE epoch observation values (Epoch: 2026-08-24T12:36:42.831Z)
Latitude
-0.00004°
Longitude
96.8335°
Altitude
648.289 km
Speed
7.504 km/s
True Right ascension
17h 15m 16s
True Declination
0° 00' 00"
Sunlit
Object was in daylight at epoch
Visualization orbit readout
Latitude
Unknown
Longitude
Unknown
Altitude
Unknown
Speed
Unknown
Apparent Right ascension
Unknown
Apparent Declination
Unknown
Sunlit
N/A
Visualization observer readout
Local Sidereal Time
09:32:55
Azimuth
Unknown
Elevation
Unknown
Doppler factor
Unknown
Orbital elements
Apogee altitude
672.124 km
Perigee altitude
504.003 km
Semi-major axis
6,966.201 km
Eccentricity
0.01207
Inclination
98.9775°
RAAN
258.8179°
Arg. of periapsis
229.3901°
True anomaly
130.73084°
Mean anomaly
129.6768°
Eccentric anomaly
130.20484°
Mean motion
3.73292 °/min
Orbital period
96.44 mins
BSTAR
0.00024198
Loading maneuver chart data...
Computing Atmospheric mass density...
Loading historical data...
Loading historical data...
Loading historical data...
Loading historical data...
Loading historical data...
Loading historical data...
Loading historical data...

Documentation

Showing up to 5 results
|